Weather Roundup
Issued by NWS Chicago, IL

Home | Current Version | Previous Version | Text Only | Print | Product List | Glossary Off
Versions: 1 2 3 4 5 6 7 8 9 10 11 12 13 14 15 16 17 18 19 20 21 22 23 24 25 26 27 28 29 30 31 32 33 34 35 36 37 38 39 40 41 42 43 44 45 46 47 48 49 50

000
NZUS59 KLOT 240308
HRRLOT

CHICAGO AREA WEATHER ROUNDUP
NATIONAL WEATHER SERVICE CHICAGO/ROMEOVILLE IL
900 PM CST TUE JAN 23 2018

NOTE: "FAIR" INDICATES FEW OR NO CLOUDS BELOW 12,000 FEET WITH NO
SIGNIFICANT WEATHER AND/OR OBSTRUCTIONS TO VISIBILITY.

* THESE STATIONS ARE NOT UNDER NWS QUALITY CONTROL. THEY ALSO MAY NOT
  REPORT WEATHER SUCH AS PRECIPITATION OR FOG.

ILZ005-006-012>014-019>023-240400-
NORTHEAST ILLINOIS

CITY           SKY/WX    TMP DP  RH WIND       PRES   REMARKS
OHARE          CLOUDY    29  21  72 NW12      30.12R WCI  19
MIDWAY         CLOUDY    30  22  72 NW8       30.13R WCI  22
AURORA         CLOUDY    29  25  85 NW8       30.14R WCI  21
LANSING*       CLOUDY    29  25  82 CALM      30.14R
JOLIET*        CLOUDY    31  26  82 N6        30.15R WCI  25
WAUKEGAN       CLOUDY    27  24  89 W3        30.11R
DUPAGE AIRPORT CLOUDY    28  24  85 W10       30.13R WCI  19
WHEELING       CLOUDY    29  22  75 NW8       30.14R WCI  21
KANKAKEE*      CLOUDY   N/A N/A N/A NW9       30.14S
MORRIS*        CLOUDY    31  26  84 N5        30.14R WCI  26
LEWIS AIRPORT* CLOUDY    28  24  84 N6        30.14R WCI  22
NORTHERLY ISL    N/A     29  22  75 NW3         N/A
$$

WIZ051-052-058>065-066-070>072-240400-
SOUTHEAST WISCONSIN

CITY           SKY/WX    TMP DP  RH WIND       PRES   REMARKS
MILWAUKEE      CLOUDY    29  22  75 W6        30.10R WCI  23
KENOSHA*       CLOUDY    27  22  81 W7        30.11R WCI  19
RACINE*        CLOUDY    28  23  81 W5        30.12R WCI  23
BURLINGTON     CLOUDY    26  22  83 W5        30.12R WCI  20
WAUKESHA       CLOUDY    25  21  86 NW7       30.11R WCI  17
WEST BEND      CLOUDY    28  23  80 NW7       30.09R WCI  21
$$

INZ001>003-010>013-019-020-240400-
NORTHWEST INDIANA

CITY           SKY/WX    TMP DP  RH WIND       PRES   REMARKS
GARY*          CLOUDY    32  23  69 N9        30.14R WCI  24
MICHIGAN CITY* NOT AVBL
RENSSELAER*    NOT AVBL
VALPARAISO     CLOUDY    31  25  78 W13       30.11R WCI  21
$$

LMZ740>746-240400-
SOUTHERN LAKE MICHIGAN

STATION/POSITION TIME  SKY/WX   TEMP WIND        PRES    VSBY
                                AIR  DIR/SP/G
                 (UTC)          (F)  (DEG/KT/KT) (MB)    (MI)
HARRISON CRIB    0240            30  320/ 11/ 12   N/A
BURNHAM HARBOR   0300            29  280/ 10/ 11   N/A
CALUMET HARBOR   0242            29  290/  7/ 10 1019.5R
BURNS HARBOR     0240            31  310/ 11/ 14 1020.3R
MICHIGAN CITY    0240            31  280/ 18/ 20   N/A
$$

ABBREVIATIONS USED IN REMARKS
   TC - TEMPERATURE IN CELSIUS
  WCI - WIND CHILL INDEX
   HX - HEAT INDEX
  VSB - VISIBILITY
$$




USA.gov is the U.S. government's official web portal to all federal, state and local government web resources and services.